Location: Newark
(41.6500°N, 71.4833°W)
Time: 20:53:38
(UTC+00:00)

deb Explorer IX - Pass Details

Date: 01 February 2020
Orbit: 549 x 1099 km, 38.8° (Epoch: 21 February)

Event Time Altitude Azimuth Distance (km) Brightness Sun altitude
Rises 03:31:02 0° 275° (W) 3,707 - -59.1°
Reaches altitude 10° 03:33:39 10° 272° (W) 2,816 - -59.5°
Maximum altitude 03:40:29 59° 195° (SSW) 1,237 - -60.3°
Drops below altitude 10° 03:47:38 10° 118° (ESE) 2,943 - -61.2°
Sets 03:50:25 0° 115° (ESE) 3,883 - -61.5°
